map of NIM home
NIM - Airport
Location
City:  Niamey, Niger
Name:Diori Hamani International Airport
ICAO:DRRN
IATA:NIM

Details
Type:Airport (Aerodrome, Airfield)
Use:Public/Civil, Military, International (customs port of entry)
Latitude:13°28'54"N (13.481547)
Longitude:2°11'01"E (2.183614)
Datum:WGS 1984
Elevation:732 ft (223 m)
Variation:1.26°W (WMM2015 magnetic declination)
0.09° annual change
Runways:2
Longest:9843 × 148 ft (3000 × 45 m), paved

Time
Time Zone:UTC+1
Local Time:

Weather
METAR:DRRN 262200Z 15004KT 6000 NSC 37/08 Q1008 NOSIG
TAF:DRRN 261700Z 2618/2724 18005KT 8000 NSC PROB40
TEMPO 2618/2620 TS FEW045CB
TEMPO 2706/2708 4000 DU
BECMG 2709/2710 22015KT
TEMPO 2715/2720 TS FEW045CB

Related Locations
Nearby:
Farthest:FUT: 12371 mi / 19910 km
Futuna Island (Maopoopo Īle Futuna) [Pointe Vele], WF

Find:

   beyond  
but within

Other Information
Maps:
NOTAMs:
Links:
Sources:

  
flag of Niger   

Sectional Chart

Flight Planning
at skyvector.com

Satellite Image

Google Maps Satellite view

 

Copyright © 2004-2017 Karl L. Swartz. All rights reserved.
The Great Circle Mapper name and logo are trademarks of the Great Circle Mapper.
All other trademarks mentioned herein belong to their respective owners.
Please see credits for attibutions and further copyright information.

  Follow gcmap on Facebook Follow gcmap on Twitter Follow gcmap on Google+ GCmap on LinkedIn

hCard Microformat

Geo Microformat